iso_date,Year,Hour,Min,DOY,POS_DOY,Lat,Lon,BP,Ts,Ta,has_bp,has_ts,has_ta,BuoyID,Buoy_Type,Buoy_Owner,Logistics,Hemisphere
2022-09-25T23:01:32Z,2022,23,1,268.9594,268.9594,79.1727,-140.266,-999.0,-999.0,-999.0,no,no,no,902005,TOP,WHOI,BGOS/JOIS,North
2022-09-25T23:31:03Z,2022,23,31,268.9799,268.9799,79.1707,-140.2758,-999.0,-999.0,-999.0,no,no,no,902005,TOP,WHOI,BGOS/JOIS,North
2022-09-26T00:00:43Z,2022,0,0,269.0005,269.0005,79.1685,-140.2854,-999.0,-999.0,-999.0,no,no,no,902005,TOP,WHOI,BGOS/JOIS,North
2022-09-26T00:30:14Z,2022,0,30,269.021,269.021,79.1662,-140.2934,-999.0,-999.0,-999.0,no,no,no,902005,TOP,WHOI,BGOS/JOIS,North
2022-09-26T01:01:20Z,2022,1,1,269.0426,269.0426,79.1637,-140.3006,-999.0,-999.0,-999.0,no,no,no,902005,TOP,WHOI,BGOS/JOIS,North
2022-09-26T01:31:17Z,2022,1,31,269.0634,269.0634,79.1611,-140.3066,-999.0,-999.0,-999.0,no,no,no,902005,TOP,WHOI,BGOS/JOIS,North
2022-09-26T02:00:48Z,2022,2,0,269.0839,269.0839,79.1583,-140.312,-999.0,-999.0,-999.0,no,no,no,902005,TOP,WHOI,BGOS/JOIS,North
2022-09-26T02:31:03Z,2022,2,31,269.1049,269.1049,79.1553,-140.3176,-999.0,-999.0,-999.0,no,no,no,902005,TOP,WHOI,BGOS/JOIS,North
2022-09-26T03:00:17Z,2022,3,0,269.1252,269.1252,79.1521,-140.3235,-999.0,-999.0,-999.0,no,no,no,902005,TOP,WHOI,BGOS/JOIS,North
2022-09-26T03:30:14Z,2022,3,30,269.146,269.146,79.1487,-140.3303,-999.0,-999.0,-999.0,no,no,no,902005,TOP,WHOI,BGOS/JOIS,North
2022-09-26T04:00:11Z,2022,4,0,269.1668,269.1668,79.1452,-140.3377,-999.0,-999.0,-999.0,no,no,no,902005,TOP,WHOI,BGOS/JOIS,North
2022-09-26T04:31:00Z,2022,4,31,269.1882,269.1882,79.1416,-140.3463,-999.0,-999.0,-999.0,no,no,no,902005,TOP,WHOI,BGOS/JOIS,North
2022-09-26T05:00:48Z,2022,5,0,269.2089,269.2089,79.1381,-140.3557,-999.0,-999.0,-999.0,no,no,no,902005,TOP,WHOI,BGOS/JOIS,North
2022-09-26T05:30:11Z,2022,5,30,269.2293,269.2293,79.1347,-140.3654,-999.0,-999.0,-999.0,no,no,no,902005,TOP,WHOI,BGOS/JOIS,North
2022-09-26T06:00:34Z,2022,6,0,269.2504,269.2504,79.1314,-140.3768,-999.0,-999.0,-999.0,no,no,no,902005,TOP,WHOI,BGOS/JOIS,North
2022-09-26T06:30:48Z,2022,6,30,269.2714,269.2714,79.1282,-140.3885,-999.0,-999.0,-999.0,no,no,no,902005,TOP,WHOI,BGOS/JOIS,North
2022-09-26T07:00:20Z,2022,7,0,269.2919,269.2919,79.1253,-140.4004,-999.0,-999.0,-999.0,no,no,no,902005,TOP,WHOI,BGOS/JOIS,North
2022-09-26T07:31:00Z,2022,7,31,269.3132,269.3132,79.1223,-140.4128,-999.0,-999.0,-999.0,no,no,no,902005,TOP,WHOI,BGOS/JOIS,North
2022-09-26T08:00:48Z,2022,8,0,269.3339,269.3339,79.1195,-140.4238,-999.0,-999.0,-999.0,no,no,no,902005,TOP,WHOI,BGOS/JOIS,North
2022-09-26T08:30:46Z,2022,8,30,269.3547,269.3547,79.117,-140.436,-999.0,-999.0,-999.0,no,no,no,902005,TOP,WHOI,BGOS/JOIS,North
2022-09-26T09:00:51Z,2022,9,0,269.3756,269.3756,79.1147,-140.4467,-999.0,-999.0,-999.0,no,no,no,902005,TOP,WHOI,BGOS/JOIS,North
2022-09-26T09:30:48Z,2022,9,30,269.3964,269.3964,79.1127,-140.4569,-999.0,-999.0,-999.0,no,no,no,902005,TOP,WHOI,BGOS/JOIS,North
2022-09-26T10:00:46Z,2022,10,0,269.4172,269.4172,79.111,-140.4659,-999.0,-999.0,-999.0,no,no,no,902005,TOP,WHOI,BGOS/JOIS,North
2022-09-26T10:30:43Z,2022,10,30,269.438,269.438,79.1094,-140.4736,-999.0,-999.0,-999.0,no,no,no,902005,TOP,WHOI,BGOS/JOIS,North
2022-09-26T11:00:14Z,2022,11,0,269.4585,269.4585,79.1078,-140.4802,-999.0,-999.0,-999.0,no,no,no,902005,TOP,WHOI,BGOS/JOIS,North
2022-09-26T11:30:11Z,2022,11,30,269.4793,269.4793,79.1065,-140.4849,-999.0,-999.0,-999.0,no,no,no,902005,TOP,WHOI,BGOS/JOIS,North
2022-09-26T12:00:51Z,2022,12,0,269.5006,269.5006,79.1049,-140.4884,-999.0,-999.0,-999.0,no,no,no,902005,TOP,WHOI,BGOS/JOIS,North
2022-09-26T12:30:57Z,2022,12,31,269.5215,269.5215,79.1032,-140.4906,-999.0,-999.0,-999.0,no,no,no,902005,TOP,WHOI,BGOS/JOIS,North
2022-09-26T13:00:11Z,2022,13,0,269.5418,269.5418,79.1013,-140.4907,-999.0,-999.0,-999.0,no,no,no,902005,TOP,WHOI,BGOS/JOIS,North
2022-09-26T13:30:51Z,2022,13,30,269.5631,269.5631,79.0992,-140.4894,-999.0,-999.0,-999.0,no,no,no,902005,TOP,WHOI,BGOS/JOIS,North
2022-09-26T14:00:48Z,2022,14,0,269.5839,269.5839,79.0969,-140.4869,-999.0,-999.0,-999.0,no,no,no,902005,TOP,WHOI,BGOS/JOIS,North
2022-09-26T14:30:46Z,2022,14,30,269.6047,269.6047,79.0944,-140.4837,-999.0,-999.0,-999.0,no,no,no,902005,TOP,WHOI,BGOS/JOIS,North
2022-09-26T15:00:51Z,2022,15,0,269.6256,269.6256,79.0917,-140.4809,-999.0,-999.0,-999.0,no,no,no,902005,TOP,WHOI,BGOS/JOIS,North
2022-09-26T15:30:14Z,2022,15,30,269.646,269.646,79.0893,-140.479,-999.0,-999.0,-999.0,no,no,no,902005,TOP,WHOI,BGOS/JOIS,North
2022-09-26T16:00:11Z,2022,16,0,269.6668,269.6668,79.0867,-140.4775,-999.0,-999.0,-999.0,no,no,no,902005,TOP,WHOI,BGOS/JOIS,North
2022-09-26T16:30:51Z,2022,16,30,269.6881,269.6881,79.0842,-140.476,-999.0,-999.0,-999.0,no,no,no,902005,TOP,WHOI,BGOS/JOIS,North
2022-09-26T17:00:57Z,2022,17,1,269.709,269.709,79.0817,-140.4751,-999.0,-999.0,-999.0,no,no,no,902005,TOP,WHOI,BGOS/JOIS,North
2022-09-26T17:30:46Z,2022,17,30,269.7297,269.7297,79.0793,-140.4747,-999.0,-999.0,-999.0,no,no,no,902005,TOP,WHOI,BGOS/JOIS,North
2022-09-26T18:00:43Z,2022,18,0,269.7505,269.7505,79.0769,-140.475,-999.0,-999.0,-999.0,no,no,no,902005,TOP,WHOI,BGOS/JOIS,North
2022-09-26T18:30:48Z,2022,18,30,269.7714,269.7714,79.0747,-140.4757,-999.0,-999.0,-999.0,no,no,no,902005,TOP,WHOI,BGOS/JOIS,North
2022-09-26T19:00:46Z,2022,19,0,269.7922,269.7922,79.0726,-140.4769,-999.0,-999.0,-999.0,no,no,no,902005,TOP,WHOI,BGOS/JOIS,North
2022-09-26T19:31:00Z,2022,19,31,269.8132,269.8132,79.0706,-140.4785,-999.0,-999.0,-999.0,no,no,no,902005,TOP,WHOI,BGOS/JOIS,North
2022-09-26T20:00:31Z,2022,20,0,269.8337,269.8337,79.0689,-140.4798,-999.0,-999.0,-999.0,no,no,no,902005,TOP,WHOI,BGOS/JOIS,North
2022-09-26T20:30:20Z,2022,20,30,269.8544,269.8544,79.0673,-140.4803,-999.0,-999.0,-999.0,no,no,no,902005,TOP,WHOI,BGOS/JOIS,North
2022-09-26T21:00:43Z,2022,21,0,269.8755,269.8755,79.0658,-140.48,-999.0,-999.0,-999.0,no,no,no,902005,TOP,WHOI,BGOS/JOIS,North
2022-09-26T21:30:48Z,2022,21,30,269.8964,269.8964,79.0644,-140.4779,-999.0,-999.0,-999.0,no,no,no,902005,TOP,WHOI,BGOS/JOIS,North
2022-09-26T22:00:11Z,2022,22,0,269.9168,269.9168,79.0629,-140.4733,-999.0,-999.0,-999.0,no,no,no,902005,TOP,WHOI,BGOS/JOIS,North
2022-09-26T22:30:17Z,2022,22,30,269.9377,269.9377,79.0614,-140.4665,-999.0,-999.0,-999.0,no,no,no,902005,TOP,WHOI,BGOS/JOIS,North
2022-09-26T23:01:14Z,2022,23,1,269.9592,269.9592,79.06,-140.4573,-999.0,-999.0,-999.0,no,no,no,902005,TOP,WHOI,BGOS/JOIS,North
2022-09-26T23:30:11Z,2022,23,30,269.9793,269.9793,79.0586,-140.4475,-999.0,-999.0,-999.0,no,no,no,902005,TOP,WHOI,BGOS/JOIS,North
2022-09-27T00:00:17Z,2022,0,0,270.0002,270.0002,79.0571,-140.4366,-999.0,-999.0,-999.0,no,no,no,902005,TOP,WHOI,BGOS/JOIS,North
2022-09-27T00:30:14Z,2022,0,30,270.021,270.021,79.0554,-140.4245,-999.0,-999.0,-999.0,no,no,no,902005,TOP,WHOI,BGOS/JOIS,North
2022-09-27T01:00:46Z,2022,1,0,270.0422,270.0422,79.0535,-140.4113,-999.0,-999.0,-999.0,no,no,no,902005,TOP,WHOI,BGOS/JOIS,North
2022-09-27T01:30:43Z,2022,1,30,270.063,270.063,79.0517,-140.3974,-999.0,-999.0,-999.0,no,no,no,902005,TOP,WHOI,BGOS/JOIS,North
2022-09-27T02:00:14Z,2022,2,0,270.0835,270.0835,79.05,-140.3828,-999.0,-999.0,-999.0,no,no,no,902005,TOP,WHOI,BGOS/JOIS,North
2022-09-27T02:30:11Z,2022,2,30,270.1043,270.1043,79.048,-140.3683,-999.0,-999.0,-999.0,no,no,no,902005,TOP,WHOI,BGOS/JOIS,North
2022-09-27T03:00:17Z,2022,3,0,270.1252,270.1252,79.0458,-140.3539,-999.0,-999.0,-999.0,no,no,no,902005,TOP,WHOI,BGOS/JOIS,North
2022-09-27T03:30:14Z,2022,3,30,270.146,270.146,79.0435,-140.3404,-999.0,-999.0,-999.0,no,no,no,902005,TOP,WHOI,BGOS/JOIS,North
2022-09-27T04:00:11Z,2022,4,0,270.1668,270.1668,79.041,-140.3275,-999.0,-999.0,-999.0,no,no,no,902005,TOP,WHOI,BGOS/JOIS,North
2022-09-27T04:31:00Z,2022,4,31,270.1882,270.1882,79.0386,-140.3137,-999.0,-999.0,-999.0,no,no,no,902005,TOP,WHOI,BGOS/JOIS,North
2022-09-27T05:00:48Z,2022,5,0,270.2089,270.2089,79.0363,-140.3004,-999.0,-999.0,-999.0,no,no,no,902005,TOP,WHOI,BGOS/JOIS,North
2022-09-27T05:30:20Z,2022,5,30,270.2294,270.2294,79.0339,-140.2871,-999.0,-999.0,-999.0,no,no,no,902005,TOP,WHOI,BGOS/JOIS,North
2022-09-27T06:00:34Z,2022,6,0,270.2504,270.2504,79.0315,-140.2744,-999.0,-999.0,-999.0,no,no,no,902005,TOP,WHOI,BGOS/JOIS,North
2022-09-27T06:30:48Z,2022,6,30,270.2714,270.2714,79.0291,-140.2634,-999.0,-999.0,-999.0,no,no,no,902005,TOP,WHOI,BGOS/JOIS,North
2022-09-27T07:00:11Z,2022,7,0,270.2918,270.2918,79.0269,-140.2531,-999.0,-999.0,-999.0,no,no,no,902005,TOP,WHOI,BGOS/JOIS,North
2022-09-27T07:30:51Z,2022,7,30,270.3131,270.3131,79.0249,-140.2426,-999.0,-999.0,-999.0,no,no,no,902005,TOP,WHOI,BGOS/JOIS,North
2022-09-27T08:00:48Z,2022,8,0,270.3339,270.3339,79.023,-140.2329,-999.0,-999.0,-999.0,no,no,no,902005,TOP,WHOI,BGOS/JOIS,North
2022-09-27T08:30:46Z,2022,8,30,270.3547,270.3547,79.0213,-140.2233,-999.0,-999.0,-999.0,no,no,no,902005,TOP,WHOI,BGOS/JOIS,North
2022-09-27T09:00:43Z,2022,9,0,270.3755,270.3755,79.0196,-140.2139,-999.0,-999.0,-999.0,no,no,no,902005,TOP,WHOI,BGOS/JOIS,North
2022-09-27T09:30:48Z,2022,9,30,270.3964,270.3964,79.018,-140.2048,-999.0,-999.0,-999.0,no,no,no,902005,TOP,WHOI,BGOS/JOIS,North
2022-09-27T10:00:46Z,2022,10,0,270.4172,270.4172,79.0164,-140.1957,-999.0,-999.0,-999.0,no,no,no,902005,TOP,WHOI,BGOS/JOIS,North
2022-09-27T10:30:51Z,2022,10,30,270.4381,270.4381,79.0149,-140.1864,-999.0,-999.0,-999.0,no,no,no,902005,TOP,WHOI,BGOS/JOIS,North
2022-09-27T11:00:48Z,2022,11,0,270.4589,270.4589,79.0136,-140.1771,-999.0,-999.0,-999.0,no,no,no,902005,TOP,WHOI,BGOS/JOIS,North
2022-09-27T11:30:46Z,2022,11,30,270.4797,270.4797,79.0123,-140.1674,-999.0,-999.0,-999.0,no,no,no,902005,TOP,WHOI,BGOS/JOIS,North
2022-09-27T12:00:43Z,2022,12,0,270.5005,270.5005,79.011,-140.1575,-999.0,-999.0,-999.0,no,no,no,902005,TOP,WHOI,BGOS/JOIS,North
2022-09-27T12:30:48Z,2022,12,30,270.5214,270.5214,79.0097,-140.1472,-999.0,-999.0,-999.0,no,no,no,902005,TOP,WHOI,BGOS/JOIS,North
2022-09-27T13:00:11Z,2022,13,0,270.5418,270.5418,79.0085,-140.1366,-999.0,-999.0,-999.0,no,no,no,902005,TOP,WHOI,BGOS/JOIS,North
2022-09-27T13:30:17Z,2022,13,30,270.5627,270.5627,79.0072,-140.1256,-999.0,-999.0,-999.0,no,no,no,902005,TOP,WHOI,BGOS/JOIS,North
2022-09-27T14:00:48Z,2022,14,0,270.5839,270.5839,79.0058,-140.114,-999.0,-999.0,-999.0,no,no,no,902005,TOP,WHOI,BGOS/JOIS,North
2022-09-27T14:30:11Z,2022,14,30,270.6043,270.6043,79.0044,-140.1023,-999.0,-999.0,-999.0,no,no,no,902005,TOP,WHOI,BGOS/JOIS,North
2022-09-27T15:01:00Z,2022,15,1,270.6257,270.6257,79.0028,-140.0903,-999.0,-999.0,-999.0,no,no,no,902005,TOP,WHOI,BGOS/JOIS,North
2022-09-27T15:30:14Z,2022,15,30,270.646,270.646,79.0013,-140.0786,-999.0,-999.0,-999.0,no,no,no,902005,TOP,WHOI,BGOS/JOIS,North
2022-09-27T16:00:11Z,2022,16,0,270.6668,270.6668,78.9996,-140.0676,-999.0,-999.0,-999.0,no,no,no,902005,TOP,WHOI,BGOS/JOIS,North
2022-09-27T16:30:51Z,2022,16,30,270.6881,270.6881,78.9979,-140.056,-999.0,-999.0,-999.0,no,no,no,902005,TOP,WHOI,BGOS/JOIS,North
2022-09-27T17:00:48Z,2022,17,0,270.7089,270.7089,78.9961,-140.0453,-999.0,-999.0,-999.0,no,no,no,902005,TOP,WHOI,BGOS/JOIS,North
2022-09-27T17:30:46Z,2022,17,30,270.7297,270.7297,78.9944,-140.035,-999.0,-999.0,-999.0,no,no,no,902005,TOP,WHOI,BGOS/JOIS,North
2022-09-27T18:00:17Z,2022,18,0,270.7502,270.7502,78.9928,-140.026,-999.0,-999.0,-999.0,no,no,no,902005,TOP,WHOI,BGOS/JOIS,North
2022-09-27T18:30:48Z,2022,18,30,270.7714,270.7714,78.9913,-140.0175,-999.0,-999.0,-999.0,no,no,no,902005,TOP,WHOI,BGOS/JOIS,North
2022-09-27T19:00:46Z,2022,19,0,270.7922,270.7922,78.99,-140.0096,-999.0,-999.0,-999.0,no,no,no,902005,TOP,WHOI,BGOS/JOIS,North
2022-09-27T19:30:43Z,2022,19,30,270.813,270.813,78.9888,-140.0016,-999.0,-999.0,-999.0,no,no,no,902005,TOP,WHOI,BGOS/JOIS,North
2022-09-27T20:00:48Z,2022,20,0,270.8339,270.8339,78.9875,-139.9933,-999.0,-999.0,-999.0,no,no,no,902005,TOP,WHOI,BGOS/JOIS,North
2022-09-27T20:31:03Z,2022,20,31,270.8549,270.8549,78.9864,-139.9837,-999.0,-999.0,-999.0,no,no,no,902005,TOP,WHOI,BGOS/JOIS,North
2022-09-27T21:00:43Z,2022,21,0,270.8755,270.8755,78.9853,-139.9738,-999.0,-999.0,-999.0,no,no,no,902005,TOP,WHOI,BGOS/JOIS,North
2022-09-27T21:30:48Z,2022,21,30,270.8964,270.8964,78.9842,-139.9634,-999.0,-999.0,-999.0,no,no,no,902005,TOP,WHOI,BGOS/JOIS,North
2022-09-27T22:00:46Z,2022,22,0,270.9172,270.9172,78.9831,-139.9532,-999.0,-999.0,-999.0,no,no,no,902005,TOP,WHOI,BGOS/JOIS,North
2022-09-27T22:30:17Z,2022,22,30,270.9377,270.9377,78.9819,-139.9431,-999.0,-999.0,-999.0,no,no,no,902005,TOP,WHOI,BGOS/JOIS,North
2022-09-27T23:00:48Z,2022,23,0,270.9589,270.9589,78.9807,-139.9325,-999.0,-999.0,-999.0,no,no,no,902005,TOP,WHOI,BGOS/JOIS,North
2022-09-27T23:30:11Z,2022,23,30,270.9793,270.9793,78.9794,-139.9218,-999.0,-999.0,-999.0,no,no,no,902005,TOP,WHOI,BGOS/JOIS,North
2022-09-28T00:00:17Z,2022,0,0,271.0002,271.0002,78.978,-139.9105,-999.0,-999.0,-999.0,no,no,no,902005,TOP,WHOI,BGOS/JOIS,North
2022-09-28T00:30:14Z,2022,0,30,271.021,271.021,78.9767,-139.8987,-999.0,-999.0,-999.0,no,no,no,902005,TOP,WHOI,BGOS/JOIS,North
2022-09-28T01:00:46Z,2022,1,0,271.0422,271.0422,78.9753,-139.886,-999.0,-999.0,-999.0,no,no,no,902005,TOP,WHOI,BGOS/JOIS,North
2022-09-28T01:30:43Z,2022,1,30,271.063,271.063,78.9739,-139.8731,-999.0,-999.0,-999.0,no,no,no,902005,TOP,WHOI,BGOS/JOIS,North
2022-09-28T02:00:14Z,2022,2,0,271.0835,271.0835,78.9726,-139.8597,-999.0,-999.0,-999.0,no,no,no,902005,TOP,WHOI,BGOS/JOIS,North
2022-09-28T02:30:46Z,2022,2,30,271.1047,271.1047,78.9707,-139.8459,-999.0,-999.0,-999.0,no,no,no,902005,TOP,WHOI,BGOS/JOIS,North
2022-09-28T03:00:17Z,2022,3,0,271.1252,271.1252,78.9688,-139.8318,-999.0,-999.0,-999.0,no,no,no,902005,TOP,WHOI,BGOS/JOIS,North
2022-09-28T03:30:14Z,2022,3,30,271.146,271.146,78.967,-139.8177,-999.0,-999.0,-999.0,no,no,no,902005,TOP,WHOI,BGOS/JOIS,North
2022-09-28T04:00:11Z,2022,4,0,271.1668,271.1668,78.9653,-139.8042,-999.0,-999.0,-999.0,no,no,no,902005,TOP,WHOI,BGOS/JOIS,North
2022-09-28T04:31:00Z,2022,4,31,271.1882,271.1882,78.9637,-139.7919,-999.0,-999.0,-999.0,no,no,no,902005,TOP,WHOI,BGOS/JOIS,North
2022-09-28T05:00:48Z,2022,5,0,271.2089,271.2089,78.9623,-139.7807,-999.0,-999.0,-999.0,no,no,no,902005,TOP,WHOI,BGOS/JOIS,North
2022-09-28T05:30:46Z,2022,5,30,271.2297,271.2297,78.9609,-139.7699,-999.0,-999.0,-999.0,no,no,no,902005,TOP,WHOI,BGOS/JOIS,North
2022-09-28T06:00:43Z,2022,6,0,271.2505,271.2505,78.9596,-139.7596,-999.0,-999.0,-999.0,no,no,no,902005,TOP,WHOI,BGOS/JOIS,North
2022-09-28T06:30:48Z,2022,6,30,271.2714,271.2714,78.9584,-139.7498,-999.0,-999.0,-999.0,no,no,no,902005,TOP,WHOI,BGOS/JOIS,North
2022-09-28T07:00:11Z,2022,7,0,271.2918,271.2918,78.9572,-139.7386,-999.0,-999.0,-999.0,no,no,no,902005,TOP,WHOI,BGOS/JOIS,North
2022-09-28T07:30:43Z,2022,7,30,271.313,271.313,78.956,-139.7269,-999.0,-999.0,-999.0,no,no,no,902005,TOP,WHOI,BGOS/JOIS,North
2022-09-28T08:00:48Z,2022,8,0,271.3339,271.3339,78.955,-139.7158,-999.0,-999.0,-999.0,no,no,no,902005,TOP,WHOI,BGOS/JOIS,North
2022-09-28T08:30:28Z,2022,8,30,271.3545,271.3545,78.954,-139.705,-999.0,-999.0,-999.0,no,no,no,902005,TOP,WHOI,BGOS/JOIS,North
2022-09-28T09:00:51Z,2022,9,0,271.3756,271.3756,78.953,-139.6941,-999.0,-999.0,-999.0,no,no,no,902005,TOP,WHOI,BGOS/JOIS,North
2022-09-28T09:30:14Z,2022,9,30,271.396,271.396,78.952,-139.6826,-999.0,-999.0,-999.0,no,no,no,902005,TOP,WHOI,BGOS/JOIS,North
2022-09-28T10:00:46Z,2022,10,0,271.4172,271.4172,78.9511,-139.6698,-999.0,-999.0,-999.0,no,no,no,902005,TOP,WHOI,BGOS/JOIS,North
2022-09-28T10:30:34Z,2022,10,30,271.4379,271.4379,78.9502,-139.6568,-999.0,-999.0,-999.0,no,no,no,902005,TOP,WHOI,BGOS/JOIS,North
2022-09-28T11:01:06Z,2022,11,1,271.4591,271.4591,78.9493,-139.6428,-999.0,-999.0,-999.0,no,no,no,902005,TOP,WHOI,BGOS/JOIS,North
2022-09-28T11:30:11Z,2022,11,30,271.4793,271.4793,78.9483,-139.6294,-999.0,-999.0,-999.0,no,no,no,902005,TOP,WHOI,BGOS/JOIS,North
2022-09-28T12:00:43Z,2022,12,0,271.5005,271.5005,78.9472,-139.6157,-999.0,-999.0,-999.0,no,no,no,902005,TOP,WHOI,BGOS/JOIS,North
2022-09-28T12:30:14Z,2022,12,30,271.521,271.521,78.9462,-139.6028,-999.0,-999.0,-999.0,no,no,no,902005,TOP,WHOI,BGOS/JOIS,North
2022-09-28T13:00:11Z,2022,13,0,271.5418,271.5418,78.9453,-139.5891,-999.0,-999.0,-999.0,no,no,no,902005,TOP,WHOI,BGOS/JOIS,North
2022-09-28T13:30:17Z,2022,13,30,271.5627,271.5627,78.9444,-139.5749,-999.0,-999.0,-999.0,no,no,no,902005,TOP,WHOI,BGOS/JOIS,North
2022-09-28T14:00:40Z,2022,14,0,271.5838,271.5838,78.9435,-139.56,-999.0,-999.0,-999.0,no,no,no,902005,TOP,WHOI,BGOS/JOIS,North
2022-09-28T14:30:11Z,2022,14,30,271.6043,271.6043,78.9425,-139.545,-999.0,-999.0,-999.0,no,no,no,902005,TOP,WHOI,BGOS/JOIS,North
2022-09-28T15:00:17Z,2022,15,0,271.6252,271.6252,78.9413,-139.5298,-999.0,-999.0,-999.0,no,no,no,902005,TOP,WHOI,BGOS/JOIS,North
2022-09-28T15:30:14Z,2022,15,30,271.646,271.646,78.9401,-139.5152,-999.0,-999.0,-999.0,no,no,no,902005,TOP,WHOI,BGOS/JOIS,North
2022-09-28T16:00:46Z,2022,16,0,271.6672,271.6672,78.9389,-139.4997,-999.0,-999.0,-999.0,no,no,no,902005,TOP,WHOI,BGOS/JOIS,North
2022-09-28T16:30:34Z,2022,16,30,271.6879,271.6879,78.9377,-139.4849,-999.0,-999.0,-999.0,no,no,no,902005,TOP,WHOI,BGOS/JOIS,North
2022-09-28T17:00:48Z,2022,17,0,271.7089,271.7089,78.9364,-139.471,-999.0,-999.0,-999.0,no,no,no,902005,TOP,WHOI,BGOS/JOIS,North
2022-09-28T17:30:46Z,2022,17,30,271.7297,271.7297,78.9352,-139.4582,-999.0,-999.0,-999.0,no,no,no,902005,TOP,WHOI,BGOS/JOIS,North
2022-09-28T18:00:17Z,2022,18,0,271.7502,271.7502,78.9342,-139.4467,-999.0,-999.0,-999.0,no,no,no,902005,TOP,WHOI,BGOS/JOIS,North
2022-09-28T18:30:48Z,2022,18,30,271.7714,271.7714,78.9332,-139.435,-999.0,-999.0,-999.0,no,no,no,902005,TOP,WHOI,BGOS/JOIS,North
2022-09-28T19:01:03Z,2022,19,1,271.7924,271.7924,78.9323,-139.4234,-999.0,-999.0,-999.0,no,no,no,902005,TOP,WHOI,BGOS/JOIS,North
2022-09-28T19:30:17Z,2022,19,30,271.8127,271.8127,78.9315,-139.4119,-999.0,-999.0,-999.0,no,no,no,902005,TOP,WHOI,BGOS/JOIS,North
2022-09-28T20:00:48Z,2022,20,0,271.8339,271.8339,78.9307,-139.3995,-999.0,-999.0,-999.0,no,no,no,902005,TOP,WHOI,BGOS/JOIS,North
2022-09-28T20:31:03Z,2022,20,31,271.8549,271.8549,78.93,-139.3871,-999.0,-999.0,-999.0,no,no,no,902005,TOP,WHOI,BGOS/JOIS,North
2022-09-28T21:00:43Z,2022,21,0,271.8755,271.8755,78.9293,-139.3746,-999.0,-999.0,-999.0,no,no,no,902005,TOP,WHOI,BGOS/JOIS,North
2022-09-28T21:30:48Z,2022,21,30,271.8964,271.8964,78.9285,-139.3617,-999.0,-999.0,-999.0,no,no,no,902005,TOP,WHOI,BGOS/JOIS,North
2022-09-28T22:00:46Z,2022,22,0,271.9172,271.9172,78.9277,-139.3485,-999.0,-999.0,-999.0,no,no,no,902005,TOP,WHOI,BGOS/JOIS,North
2022-09-28T22:30:17Z,2022,22,30,271.9377,271.9377,78.9269,-139.3354,-999.0,-999.0,-999.0,no,no,no,902005,TOP,WHOI,BGOS/JOIS,North
2022-09-28T23:00:57Z,2022,23,1,271.959,271.959,78.926,-139.3215,-999.0,-999.0,-999.0,no,no,no,902005,TOP,WHOI,BGOS/JOIS,North
2022-09-28T23:31:03Z,2022,23,31,271.9799,271.9799,78.925,-139.3083,-999.0,-999.0,-999.0,no,no,no,902005,TOP,WHOI,BGOS/JOIS,North
2022-09-29T00:00:17Z,2022,0,0,272.0002,272.0002,78.9238,-139.2961,-999.0,-999.0,-999.0,no,no,no,902005,TOP,WHOI,BGOS/JOIS,North
2022-09-29T00:30:40Z,2022,0,30,272.0213,272.0213,78.9224,-139.284,-999.0,-999.0,-999.0,no,no,no,902005,TOP,WHOI,BGOS/JOIS,North
2022-09-29T01:00:20Z,2022,1,0,272.0419,272.0419,78.9209,-139.2719,-999.0,-999.0,-999.0,no,no,no,902005,TOP,WHOI,BGOS/JOIS,North
2022-09-29T01:30:43Z,2022,1,30,272.063,272.063,78.9195,-139.2601,-999.0,-999.0,-999.0,no,no,no,902005,TOP,WHOI,BGOS/JOIS,North
2022-09-29T02:00:14Z,2022,2,0,272.0835,272.0835,78.9183,-139.2493,-999.0,-999.0,-999.0,no,no,no,902005,TOP,WHOI,BGOS/JOIS,North
2022-09-29T02:30:11Z,2022,2,30,272.1043,272.1043,78.9171,-139.2386,-999.0,-999.0,-999.0,no,no,no,902005,TOP,WHOI,BGOS/JOIS,North
2022-09-29T03:00:34Z,2022,3,0,272.1254,272.1254,78.916,-139.2277,-999.0,-999.0,-999.0,no,no,no,902005,TOP,WHOI,BGOS/JOIS,North
2022-09-29T03:30:14Z,2022,3,30,272.146,272.146,78.915,-139.2173,-999.0,-999.0,-999.0,no,no,no,902005,TOP,WHOI,BGOS/JOIS,North
2022-09-29T04:00:46Z,2022,4,0,272.1672,272.1672,78.914,-139.2062,-999.0,-999.0,-999.0,no,no,no,902005,TOP,WHOI,BGOS/JOIS,North
2022-09-29T04:31:00Z,2022,4,31,272.1882,272.1882,78.9132,-139.196,-999.0,-999.0,-999.0,no,no,no,902005,TOP,WHOI,BGOS/JOIS,North
2022-09-29T05:00:48Z,2022,5,0,272.2089,272.2089,78.9125,-139.1869,-999.0,-999.0,-999.0,no,no,no,902005,TOP,WHOI,BGOS/JOIS,North
2022-09-29T05:30:46Z,2022,5,30,272.2297,272.2297,78.9118,-139.1781,-999.0,-999.0,-999.0,no,no,no,902005,TOP,WHOI,BGOS/JOIS,North
2022-09-29T06:00:43Z,2022,6,0,272.2505,272.2505,78.9113,-139.1695,-999.0,-999.0,-999.0,no,no,no,902005,TOP,WHOI,BGOS/JOIS,North
2022-09-29T06:30:14Z,2022,6,30,272.271,272.271,78.9109,-139.1612,-999.0,-999.0,-999.0,no,no,no,902005,TOP,WHOI,BGOS/JOIS,North
2022-09-29T07:00:46Z,2022,7,0,272.2922,272.2922,78.9106,-139.1521,-999.0,-999.0,-999.0,no,no,no,902005,TOP,WHOI,BGOS/JOIS,North
2022-09-29T07:30:43Z,2022,7,30,272.313,272.313,78.9104,-139.1426,-999.0,-999.0,-999.0,no,no,no,902005,TOP,WHOI,BGOS/JOIS,North
2022-09-29T08:00:48Z,2022,8,0,272.3339,272.3339,78.9103,-139.1324,-999.0,-999.0,-999.0,no,no,no,902005,TOP,WHOI,BGOS/JOIS,North
2022-09-29T08:30:28Z,2022,8,30,272.3545,272.3545,78.9103,-139.1217,-999.0,-999.0,-999.0,no,no,no,902005,TOP,WHOI,BGOS/JOIS,North
2022-09-29T09:01:00Z,2022,9,1,272.3757,272.3757,78.9104,-139.1106,-999.0,-999.0,-999.0,no,no,no,902005,TOP,WHOI,BGOS/JOIS,North
2022-09-29T09:30:14Z,2022,9,30,272.396,272.396,78.9105,-139.0997,-999.0,-999.0,-999.0,no,no,no,902005,TOP,WHOI,BGOS/JOIS,North
2022-09-29T10:00:46Z,2022,10,0,272.4172,272.4172,78.9106,-139.0879,-999.0,-999.0,-999.0,no,no,no,902005,TOP,WHOI,BGOS/JOIS,North
2022-09-29T10:30:43Z,2022,10,30,272.438,272.438,78.9107,-139.0759,-999.0,-999.0,-999.0,no,no,no,902005,TOP,WHOI,BGOS/JOIS,North
2022-09-29T11:00:14Z,2022,11,0,272.4585,272.4585,78.9108,-139.0639,-999.0,-999.0,-999.0,no,no,no,902005,TOP,WHOI,BGOS/JOIS,North
2022-09-29T11:30:11Z,2022,11,30,272.4793,272.4793,78.9109,-139.0516,-999.0,-999.0,-999.0,no,no,no,902005,TOP,WHOI,BGOS/JOIS,North
2022-09-29T12:00:51Z,2022,12,0,272.5006,272.5006,78.911,-139.0393,-999.0,-999.0,-999.0,no,no,no,902005,TOP,WHOI,BGOS/JOIS,North
2022-09-29T12:30:14Z,2022,12,30,272.521,272.521,78.911,-139.0279,-999.0,-999.0,-999.0,no,no,no,902005,TOP,WHOI,BGOS/JOIS,North
2022-09-29T13:00:11Z,2022,13,0,272.5418,272.5418,78.911,-139.0171,-999.0,-999.0,-999.0,no,no,no,902005,TOP,WHOI,BGOS/JOIS,North
2022-09-29T13:30:34Z,2022,13,30,272.5629,272.5629,78.911,-139.0073,-999.0,-999.0,-999.0,no,no,no,902005,TOP,WHOI,BGOS/JOIS,North
2022-09-29T14:00:48Z,2022,14,0,272.5839,272.5839,78.911,-138.9984,-999.0,-999.0,-999.0,no,no,no,902005,TOP,WHOI,BGOS/JOIS,North
2022-09-29T14:30:11Z,2022,14,30,272.6043,272.6043,78.9112,-138.9897,-999.0,-999.0,-999.0,no,no,no,902005,TOP,WHOI,BGOS/JOIS,North
2022-09-29T15:01:00Z,2022,15,1,272.6257,272.6257,78.9115,-138.9809,-999.0,-999.0,-999.0,no,no,no,902005,TOP,WHOI,BGOS/JOIS,North
2022-09-29T15:30:14Z,2022,15,30,272.646,272.646,78.9121,-138.9721,-999.0,-999.0,-999.0,no,no,no,902005,TOP,WHOI,BGOS/JOIS,North
2022-09-29T16:00:46Z,2022,16,0,272.6672,272.6672,78.9128,-138.9621,-999.0,-999.0,-999.0,no,no,no,902005,TOP,WHOI,BGOS/JOIS,North
2022-09-29T16:30:17Z,2022,16,30,272.6877,272.6877,78.9137,-138.9532,-999.0,-999.0,-999.0,no,no,no,902005,TOP,WHOI,BGOS/JOIS,North
2022-09-29T17:00:48Z,2022,17,0,272.7089,272.7089,78.9147,-138.9445,-999.0,-999.0,-999.0,no,no,no,902005,TOP,WHOI,BGOS/JOIS,North
2022-09-29T17:30:46Z,2022,17,30,272.7297,272.7297,78.9158,-138.9359,-999.0,-999.0,-999.0,no,no,no,902005,TOP,WHOI,BGOS/JOIS,North
2022-09-29T18:00:17Z,2022,18,0,272.7502,272.7502,78.917,-138.9279,-999.0,-999.0,-999.0,no,no,no,902005,TOP,WHOI,BGOS/JOIS,North
2022-09-29T18:30:48Z,2022,18,30,272.7714,272.7714,78.9185,-138.9195,-999.0,-999.0,-999.0,no,no,no,902005,TOP,WHOI,BGOS/JOIS,North
2022-09-29T19:01:03Z,2022,19,1,272.7924,272.7924,78.92,-138.9105,-999.0,-999.0,-999.0,no,no,no,902005,TOP,WHOI,BGOS/JOIS,North